TimeCDT,TemperatureF,Dew PointF,Humidity,Sea Level PressureIn,VisibilityMPH,Wind Direction,Wind SpeedMPH,Gust SpeedMPH,PrecipitationIn,Events,Conditions,WindDirDegrees,DateUTC
12:56 AM,64.4,-9999,N/A,30.01,8.0,Calm,Calm,-,N/A,,Clear,0,2013-08-22 05:56:00
1:56 AM,63.0,-9999,N/A,30.01,9.0,Calm,Calm,-,N/A,,Clear,0,2013-08-22 06:56:00
2:56 AM,63.0,-9999,N/A,30.01,10.0,Calm,Calm,-,0.01,,Clear,0,2013-08-22 07:56:00
3:56 AM,63.0,-9999,N/A,30.01,10.0,Calm,Calm,-,N/A,,Clear,0,2013-08-22 08:56:00
4:56 AM,61.9,-9999,N/A,30.02,7.0,SW,3.5,-,N/A,,Clear,230,2013-08-22 09:56:00
5:56 AM,61.9,-9999,N/A,30.02,7.0,Calm,Calm,-,N/A,,Clear,0,2013-08-22 10:56:00
6:56 AM,61.9,-9999,N/A,30.03,6.0,NNE,3.5,-,N/A,,Haze,20,2013-08-22 11:56:00
7:56 AM,64.9,-9999,N/A,30.05,10.0,NNE,4.6,-,N/A,,Clear,30,2013-08-22 12:56:00
8:56 AM,64.9,64.9,100,30.06,10.0,North,8.1,-,N/A,,Clear,10,2013-08-22 13:56:00
9:56 AM,66.9,63.0,87,30.09,10.0,NNW,3.5,-,N/A,,Clear,340,2013-08-22 14:56:00
10:56 AM,68.9,64.9,87,30.13,10.0,SW,8.1,-,N/A,,Mostly Cloudy,220,2013-08-22 15:56:00
11:56 AM,72.9,61.0,66,30.11,10.0,West,5.8,-,N/A,,Clear,260,2013-08-22 16:56:00
12:56 PM,75.9,59.0,56,30.09,10.0,WSW,3.5,-,N/A,,Clear,250,2013-08-22 17:56:00
1:56 PM,77.9,57.9,50,30.07,10.0,ENE,6.9,-,N/A,,Clear,70,2013-08-22 18:56:00
2:56 PM,81.0,56.8,44,30.06,10.0,NE,8.1,-,N/A,,Clear,40,2013-08-22 19:56:00
3:56 PM,81.9,56.8,42,30.05,10.0,ENE,6.9,-,N/A,,Clear,60,2013-08-22 20:56:00
4:56 PM,81.9,52.0,35,30.06,10.0,Variable,4.6,-,N/A,,Clear,0,2013-08-22 21:56:00
5:56 PM,79.9,55.9,44,30.06,10.0,ESE,6.9,-,N/A,,Clear,120,2013-08-22 22:56:00
6:56 PM,77.9,59.9,54,30.07,10.0,ESE,3.5,-,N/A,,Clear,110,2013-08-22 23:56:00
7:56 PM,72.0,63.0,73,30.08,10.0,East,3.5,-,N/A,,Clear,100,2013-08-23 00:56:00
8:56 PM,65.8,65.8,100,30.10,10.0,Calm,Calm,-,N/A,,Clear,0,2013-08-23 01:56:00
9:56 PM,63.0,63.0,100,30.12,10.0,Calm,Calm,-,N/A,,Clear,0,2013-08-23 02:56:00
10:56 PM,61.0,61.0,100,30.13,10.0,Calm,Calm,-,N/A,,Clear,0,2013-08-23 03:56:00
11:56 PM,59.0,57.9,96,30.13,10.0,Calm,Calm,-,N/A,,Clear,0,2013-08-23 04:56:00